This demonstration page uses our WeatherBlox Daily Observations layout. Learn more.

Left ArrowRight Arrow

39.01783, -85.05884

Hourly Observations for September 26, 2021

Temp ( °F °C ) Dew Point ( °F °C ) Humidity (%) Winds ( mph kmh ) Pressure ( in mb ) Visibility ( mi km ) Precip ( " mm )
12:52 am 00:52 Clear 51 10.6 44 6.7 77 77 SSW 3 6 30.07 1018 10 16 0.00 0.00
1:52 am 01:52 Clear 50 10 45 7.2 83 83 SSW 3 6 30.06 1018 10 16 0.00 0.00
2:52 am 02:52 Clear 52 11.1 44 6.7 75 75 SSW 6 9 30.06 1018 10 16 0.00 0.00
3:52 am 03:52 Clear 51 10.6 44 6.7 77 77 SSW 7 11 30.06 1018 10 16 0.00 0.00
4:52 am 04:52 Mostly Clear 51 10.6 44 6.7 77 77 Calm 30.07 1018 10 16 0.00 0.00
5:52 am 05:52 Clear 50 10 44 6.7 80 80 SSW 5 7 30.08 1019 10 16 0.00 0.00
6:52 am 06:52 Clear 48 8.9 44 6.7 86 86 SSW 3 6 30.09 1019 10 16 0.00 0.00
7:52 am 07:52 Mostly Sunny 47 8.3 43 6.1 86 86 S 5 7 30.10 1019 10 16 0.00 0.00
8:52 am 08:52 Partly Cloudy 53 11.7 46 7.8 77 77 SW 5 7 30.11 1020 10 16 0.00 0.00
9:52 am 09:52 Mostly Sunny 59 15 47 8.3 64 64 WSW 6 9 30.12 1020 10 16 0.00 0.00
10:52 am 10:52 Mostly Sunny 64 17.8 46 7.8 52 52 SSW 7 11 30.13 1020 10 16 0.00 0.00
11:52 am 11:52 Mostly Sunny 69 20.6 45 7.2 42 42 WSW 8 13 30.13 1020 10 16 0.00 0.00
12:52 pm 12:52 Mostly Sunny 71 21.7 46 7.8 41 41 SSW 12 19 30.11 1020 10 16 0.00 0.00
1:52 pm 13:52 Partly Cloudy 73 22.8 44 6.7 35 35 SW 8 13 30.10 1019 10 16 0.00 0.00
2:52 pm 14:52 Partly Cloudy 74 23.3 45 7.2 36 36 SW 8 13 30.07 1018 10 16 0.00 0.00
3:52 pm 15:52 Partly Cloudy 73 22.8 44 6.7 35 35 SW 9 15 30.05 1018 10 16 0.00 0.00
4:52 pm 16:52 Partly Cloudy 74 23.3 46 7.8 37 37 SW 7 11 30.04 1017 10 16 0.00 0.00
5:52 pm 17:52 Partly Cloudy 71 21.7 45 7.2 39 39 SSW 10 17 30.04 1017 10 16 0.00 0.00
6:52 pm 18:52 Mostly Cloudy 69 20.6 46 7.8 44 44 SSW 7 11 30.04 1017 10 16 0.00 0.00
7:52 pm 19:52 Partly Cloudy 65 18.3 47 8.3 52 52 SSW 7 11 30.04 1017 10 16 0.00 0.00
8:52 pm 20:52 Partly Cloudy 63 17.2 47 8.3 56 56 SSW 8 13 30.04 1017 10 16 0.00 0.00
9:52 pm 21:52 Mostly Clear 61 16.1 48 8.9 63 63 SSW 8 13 30.04 1017 10 16 0.00 0.00
10:52 pm 22:52 Mostly Clear 60 15.6 48 8.9 65 65 SSW 8 13 30.03 1017 10 16 0.00 0.00
11:52 pm 23:52 Partly Cloudy 60 15.6 48 8.9 65 65 SSW 10 17 30.02 1017 10 16 0.00 0.00

Powered by AerisWeather